Location: Strawberry
(45.6646°N, 111.9596°W)
Time: 17:35:52
(UTC+00:00)

SR - Pass Details

Date: 07 October 2022
Orbit: 577 x 874 km, 66.7° (Epoch: 05 December)

Event Time Altitude Azimuth Distance (km) Brightness Sun altitude
Rises 03:14:18 0° 205° (SSW) 3,424 ? -24.3°
Reaches altitude 10° 03:16:46 10° 204° (SSW) 2,507 ? -24.7°
Maximum altitude 03:22:36 75° 120° (ESE) 907 ? -25.7°
Enters shadow 03:23:45 58° 55° (NE) 1,016 ? -25.9°
